Regional Weather Roundup
Issued by NWS

Home | Current Version | Previous Version | Text Only | Print | Product List | Glossary Off
Versions: 1 2 3 4 5 6 7 8 9 10 11 12 13 14 15 16 17 18 19 20 21 22 23 24 25 26 27 28 29 30 31 32 33 34 35 36 37 38 39 40 41 42 43 44 45 46 47 48 49 50

000
ASUS43 KDTX 021610
RWRMI
MICHIGAN HOURLY REGIONAL WEATHER ROUNDUP
NATIONAL WEATHER SERVICE DETROIT/PONTIAC MI
1200 PM EDT THU JUL 02 2015

NOTE: "FAIR" INDICATES FEW OR NO CLOUDS BELOW 12,000 FEET WITH NO
SIGNIFICANT WEATHER AND/OR OBSTRUCTION TO VISIBILITY.

MIZ047>049-052>055-059>063-066>070-074>076-081>083-021700-
SOUTHEAST LOWER MICHIGAN

CITY           SKY/WX    TMP DP  RH WIND       PRES   REMARKS
ADRIAN         PTSUNNY   66  57  72 E9        30.02S
ALMA           PTSUNNY   66  54  65 N3        30.06S
ANN ARBOR      MOSUNNY   70  56  61 MISG      30.02R
BAD AXE        PTSUNNY   64  49  58 NE5       30.06S
CARO           MOSUNNY   67  53  59 N3        30.04S
DETROIT CITY   PTSUNNY   70  50  49 N9        30.02R
DETROIT        MOSUNNY   70  54  56 VRB3      30.02R
FLINT          CLOUDY    68  53  58 N7        30.05R
GROSSE ILE     MOSUNNY   70  55  60 N7        30.01R
HILLSDALE      MOSUNNY   65  58  77 NE5       30.02F
HOWELL         CLOUDY    65  54  66 NE5       30.04S

CITY           SKY/WX    TMP DP  RH WIND       PRES   REMARKS
JACKSON        PTSUNNY   67  57  70 N10       30.02F
LAMBERTVILLE   CLOUDY    69  57  65 E6        30.02R
LANSING        MOSUNNY   68  55  63 E3        30.04F
LAPEER         PTSUNNY   65  50  56 NW5       30.04S
MONROE         PTSUNNY   68  56  67 E7        30.01S
MT. CLEMENS    MOSUNNY   70  54  57 N7        30.00R
PONTIAC        PTSUNNY   69  53  56 VRB6      30.02R
PORT HOPE        N/A     59  54  83 N5        30.05R
PORT HURON     MOSUNNY   66  55  68 N7        30.03R
TRI CITIES     PTSUNNY   70  50  49 NE8       30.06S
MIDLAND        PTSUNNY   69  49  49 NE8G16    30.05S
TROY           PTSUNNY   69  52  54 N6        30.04S
SAGINAW HB     MOSUNNY   66  48  52 NE10      30.05S
$$
MIZ043>046-050>051-056>058-064>065-071>073-077>080-021700-
SOUTHWEST LOWER MICHIGAN

CITY           SKY/WX    TMP DP  RH WIND       PRES   REMARKS
BATTLE CREEK   PTSUNNY   68  57  68 NE10      30.02F
BENTON HARBOR  MOSUNNY   70  55  59 NE9       29.99F
BIG RAPIDS     SUNNY     66  46  48 E3        30.04F
COLDWATER      PTSUNNY   66  55  67 NE10      30.01S
FREMONT        FAIR      67  51  56 E9        30.03F
HOLLAND        PTSUNNY   68  57  68 E7        30.03S
GRAND RAPIDS   PTSUNNY   66  56  70 E8        30.03F
IONIA          PTSUNNY   66  56  68 E7        30.03F
KALAMAZOO      PTSUNNY   65  55  70 NE8       30.03S
LUDINGTON      SUNNY     71  54  55 E7        30.04F
MARSHALL       CLOUDY    66  57  72 CALM      30.02F
MOUNT PLEASANT PTSUNNY   67  49  53 NE8       30.05F
MUSKEGON       PTSUNNY   69  55  60 NE8       30.03F
SOUTH HAVEN    MOSUNNY   64  57  78 NE8       30.02S
$$
MIZ016>042-021700-
NORTHERN LOWER MICHIGAN

CITY           SKY/WX    TMP DP  RH WIND       PRES   REMARKS
ALPENA         SUNNY     70  39  32 NE9       30.07R
BEAVER ISLAND  SUNNY     65  44  46 NW5       30.08F
BELLAIRE       SUNNY     68  47  45 CALM      30.07F
CADILLAC       SUNNY     67  44  44 NE10      30.06F
CHARLEVOIX     SUNNY     61  53  75 N6        30.12R
FRANKFORT      SUNNY     69  47  46 NE6       30.07F
GAYLORD        SUNNY     66  42  41 NE7       30.08R
GRAYLING       SUNNY     68  43  40 NE9       30.08S
HARBOR SPRINGS SUNNY     61  54  76 SW7       30.08S
HOUGHTON LAKE  SUNNY     67  42  40 NE9       30.07S
MANISTEE       SUNNY     64  50  59 NW8       30.06F
OSCODA         SUNNY     68  44  42 NE14      30.07R
PELLSTON       SUNNY     69  43  38 VRB5      30.07S
ROGERS CITY    SUNNY     63  52  66 N3        30.09R
TRAVERSE CITY  MOSUNNY   65  50  58 N6        30.06S
$$
MIZ007>008-015-021700-
EASTERN UPPER MICHIGAN

CITY           SKY/WX    TMP DP  RH WIND       PRES   REMARKS
KINROSS        SUNNY     66  45  45 NW6       30.06S
MACKINAC ISLAN SUNNY     64  49  57 S3        30.07S
NEWBERRY       SUNNY     67  51  55 CALM      30.06F
S. S. MARIE    SUNNY     67  50  54 SW5       30.05S
MUNISING         N/A     64  52  64 NE5       30.05F
$$
MIZ004>006-011>014-085-021700-
CENTRAL UPPER MICHIGAN

CITY           SKY/WX    TMP DP  RH WIND       PRES   REMARKS
MANISTIQUE     SUNNY     68  47  46 SW5       30.07R
ESCANABA       SUNNY     70  45  40 SE6       30.06F
MENOMINEE      SUNNY     66  45  45 SE7       30.06F
SAWYER-GWINN   SUNNY     66  45  45 W9        30.06F
$$
MIZ001>003-009>011-084-021700-
WESTERN UPPER MICHIGAN

CITY           SKY/WX    TMP DP  RH WIND       PRES   REMARKS
IRON MOUNTAIN  PTSUNNY   67  46  47 CALM      30.06F
HOUGHTON       SUNNY     70  47  43 S6        30.02F
COPPER HARBOR    N/A     61  50  67 NE3       30.01S
IRONWOOD       SUNNY     70  52  52 SW9       30.01S
$$

ABBREVIATIONS USED IN REMARKS
   TC - TEMPERATURE IN CELSIUS
  WCI - WIND CHILL INDEX
   HX - HEAT INDEX
  VSB - VISIBILITY



USA.gov is the U.S. government's official web portal to all federal, state and local government web resources and services.